Tracking 25744 objects as of 25-Jun-2022
HD Live streaming from Space Station
objects crossing your sky now

STARLINK-3332

Track STARLINK-3332 now!
10-day predictions
STARLINK-3332 is classified as:


NORAD ID: 50825
Int'l Code: 2022-001Y
Perigee: 545.1 km
Apogee: 548.7 km
Inclination: 53.2 °
Period: 95.4 minutes
Semi major axis: 6917 km
RCS: Unknown
Launch date: January 6, 2022
Source: United States (US)
Launch site: AIR FORCE EASTERN TEST RANGE (AFETR)
aabbcc
Your satellite tracking list
Your tracking list is empty




NASA's NSSDC Master Catalog

Two Line Element Set (TLE):
1 50825U 22001Y   22175.60109017  .00001073  00000-0  85564-4 0  9999
2 50825  53.2177 127.8703 0002574  51.1227 308.9994 15.08836839 27250
Source of the keplerian elements: AFSPC